Regional Weather Roundup
Issued by NWS Lake Charles, LA

Home | Current Version | Previous Version | Text Only | Print | Product List | Glossary On
Versions: 1 2 3 4 5 6 7 8 9 10 11 12 13 14 15 16 17 18 19 20 21 22 23 24 25 26 27 28 29 30 31 32 33 34 35 36 37 38 39 40 41 42 43 44 45 46 47 48 49 50
000
ASUS44 KLCH 221810
RWRLCH
REGIONAL WEATHER ROUNDUP
NATIONAL WEATHER SERVICE LAKE CHARLES LA
100 PM CDT SUN OCT 22 2017

Note: "fair" indicates few or no clouds below 12,000 feet with no
significant weather and/or obstructions to visibility.


ACROSS SOUTHEAST TEXAS

CITY           SKY/WX    TMP DP  RH WIND       PRES   REMARKS
BEAUMONT       LGT RAIN  62  59  90 E14       30.06F
BEAUMONT CITY  CLOUDY   N/A N/A N/A E15       30.02F
ORANGE         RAIN      63  61  94 NE7       30.11F
JASPER         CLOUDY    63  61  93 W6        30.10R
$$

ACROSS CENTRAL LOUISIANA

CITY           SKY/WX    TMP DP  RH WIND       PRES   REMARKS
LEESVILLE      CLOUDY    63  61  94 S9        30.09S
FULLERTON      NOT AVBL
ALEXANDRIA INT CLOUDY    65  58  78 SE7       30.06F
ESLER FIELD      N/A    N/A N/A N/A MISG      30.09F
DERIDDER       DRIZZLE   63  61  95 S8        30.13R
OAKDALE        CLOUDY    64  60  86 CALM      30.10F
OPELOUSAS        N/A     63  60  90 NE5       30.12F
$$

ACROSS SOUTHWEST AND SOUTH CENTRAL LOUISIANA

CITY           SKY/WX    TMP DP  RH WIND       PRES   REMARKS
SULPHUR        CLOUDY    65  59  78 N7        30.14S
LAKE CHARLES   LGT RAIN  66  60  81 N8        30.11F
CHENNAULT INT  CLOUDY    64  61  88 N7        30.12F
CAMERON PHI    MOCLDY    68  59  73 N12G17    30.11F
DEQUINCY       LGT RAIN  62  59  91 CALM      30.14S
JENNINGS       CLOUDY    64  59  82 MISG      30.11F
LAFAYETTE      CLOUDY    65  60  84 N14       30.13F
NEW IBERIA     LGT RAIN  64  58  80 N13       30.14F
ABBEVILLE      DRIZZLE   63  61  94 N12       30.13F
PATTERSON      CLOUDY    66  60  81 NW15      30.14S
SALT POINT       N/A     64  58  80 N12G25    30.13S
$$

SELECTED SITES ACROSS THE REGION

CITY           SKY/WX    TMP DP  RH WIND       PRES   REMARKS
HOUSTON BUSH   CLOUDY    67  64  90 NW9       30.10R
HOUSTON HOBBY  LGT RAIN  67  61  81 VRB3      30.07F
GALVESTON      CLOUDY    68  62  81 NE14      30.08F
COLLEGE STAT   CLOUDY    68  61  78 NW7       30.14F
CONROE         CLOUDY    64  63  96 W7        30.10S
HUNTSVILLE     CLOUDY    67  60  78 NW12      30.11F
LUFKIN         CLOUDY    63  60  90 NW3       30.11R
SHREVEPORT     CLOUDY    63  61  93 W7        30.09F
MONROE         CLOUDY    68  60  75 SW5       30.06F
NATCHEZ MS     NOT AVBL
BATON ROUGE    CLOUDY    68  58  70 W10       30.12F
N.O. INTL ARPT CLOUDY    67  64  90 NW16G29   30.07F
SLIDELL        LGT RAIN  67  62  84 NW13G30   30.04R
$$

MARINE REPORTS

STATION/POSITION TIME  SKY/WX   TEMP    WIND        PRES    VSBY
                                AIR SEA DIR/SP/G
                 (UTC)          (F)     (DEG/KT/KT) (MB)    (MI)
BUOY 30 S HIGH I 1750            69 79   40/ 21/ 25 1017.4F
WVE H/P(F/S)=  6/ 6

SEA RIM ST PARK  1800            64      30/ 13/ 16 1018.3F
PORT ARTHUR      1742            63 76   30/  8/ 11 1019.5F
SABINE PASS N    1742            66 77   10/ 15/ 23 1021.1F
TEXAS POINT      NOT AVBL
CALCASIEU PASS   1742            66 75   30/ 13/ 18 1018.5F
LK CHARLES BEACH 1742            65 77              1019.6F
MARSH ISLAND     1700            64                   N/A
FRESH WATER LOCK 1742            62 76   20/ 14/ 25 1020.1F
AMERADA PASS     1742            65 77  310/ 17/ 26 1020.5R
$$



USA.gov is the U.S. government's official web portal to all federal, state and local government web resources and services.